Weather History for Rome, GA

Change the Weather History Date:

Thursday, May 16, 2013

  Actual Average Record
Temperature  
Mean Temperature 72 °F 68 °F  
Max Temperature 84 °F 81 °F 91 °F (2001)
Min Temperature 59 °F 56 °F 42 °F (1997)
Cooling Degree Days 7 4  
Month to date cooling degree days 19 44  
Year to date cooling degree days 43 77  
Growing Degree Days 22 (Base 50)    
Moisture  
Dew Point 60 °F    
Average Humidity 72    
Maximum Humidity 97    
Minimum Humidity 46    
Precipitation  
Precipitation 0.00 in 0.14 in 0.20 in (2011)
Month to date precipitation 3.96 2.32  
Year to date precipitation 11.68 21.01  
Sea Level Pressure  
Sea Level Pressure 30.01 in    
Wind  
Wind Speed 2 mph (SSW)    
Max Wind Speed 10 mph    
Max Gust Speed 15 mph    
Visibility 10 miles    
Events      
T = Trace of Precipitation, MM = Missing Value Source: NWS Daily Summary

Daily Weather History Graph

Daily Weather History Graph

Search for Another Location

Airport:

Trip Planner

Search our weather history database for the weather conditions in past years. The results will help you decide how hot, cold, wet, or windy it might be!

Date:

Astronomy

May. 16, 2013 Rise Set
Actual Time 6:37 AM EDT 8:36 PM EDT
Civil Twilight 6:09 AM EDT 9:04 PM EDT
Nautical Twilight 5:35 AM EDT 9:38 PM EDT
Astronomical Twilight 4:59 AM EDT 10:15 PM EDT
Moon 12:05 PM EDT (5/16) 1:01 AM EDT (5/16)
Length of Visible Light 14h 55m
Length of Day
13h 59m
Waxing Crescent, 35% of the Moon is Illuminated
May 16
Waxing Crescent
May 18
First Quarter
May 25
Full
May 31
Last Quarter
Jun 8
New

Hourly Weather History & Observations

Time (EDT) Temp. Heat Index Dew Point Humidity Pressure Visibility Wind Dir Wind Speed Gust Speed Precip Events Conditions
12:53 AM 61.0 °F - 59.0 °F 93% 30.02 in 10.0 mi Calm Calm - N/A   Clear
1:53 AM 60.1 °F - 59.0 °F 96% 30.02 in 9.0 mi Calm Calm - N/A   Clear
2:53 AM 61.0 °F - 59.0 °F 93% 30.00 in 10.0 mi Calm Calm - N/A   Clear
3:53 AM 61.0 °F - 59.0 °F 93% 30.00 in 10.0 mi Calm Calm - N/A   Clear
4:53 AM 60.1 °F - 57.9 °F 93% 30.00 in 10.0 mi Calm Calm - N/A   Clear
5:53 AM 60.1 °F - 57.9 °F 93% 30.01 in 10.0 mi Calm Calm - N/A   Clear
6:53 AM 61.0 °F - 57.9 °F 90% 30.02 in 10.0 mi Calm Calm - N/A   Clear
7:53 AM 61.0 °F - 59.0 °F 93% 30.05 in 9.0 mi Calm Calm - N/A   Clear
8:53 AM 63.0 °F - 60.1 °F 90% 30.06 in 10.0 mi Calm Calm - N/A   Clear
9:53 AM 64.0 °F - 61.0 °F 90% 30.06 in 9.0 mi Calm Calm - N/A   Clear
10:53 AM 70.0 °F - 62.1 °F 76% 30.06 in 10.0 mi Variable 3.5 mph - N/A   Clear
11:53 AM 75.0 °F - 63.0 °F 66% 30.06 in 10.0 mi Variable 3.5 mph - N/A   Clear
12:53 PM 79.0 °F - 62.1 °F 56% 30.04 in 10.0 mi Calm Calm - N/A   Clear
1:53 PM 82.0 °F 82.7 °F 61.0 °F 49% 30.00 in 10.0 mi South 9.2 mph - N/A   Partly Cloudy
2:53 PM 80.6 °F 81.1 °F 59.0 °F 48% 30.02 in 10.0 mi Calm Calm - N/A   Clear
3:53 PM 82.0 °F 82.1 °F 59.0 °F 45% 29.98 in 10.0 mi SW 4.6 mph - N/A   Scattered Clouds
4:53 PM 82.0 °F 82.4 °F 60.1 °F 47% 29.96 in 10.0 mi SSW 5.8 mph - N/A   Mostly Cloudy
5:53 PM 82.9 °F 82.8 °F 59.0 °F 44% 29.96 in 10.0 mi Variable 5.8 mph - N/A   Scattered Clouds
6:53 PM 81.0 °F 81.3 °F 59.0 °F 47% 29.96 in 10.0 mi SW 3.5 mph - N/A   Scattered Clouds
7:53 PM 78.1 °F - 60.1 °F 54% 29.96 in 10.0 mi Calm Calm - N/A   Partly Cloudy
8:53 PM 73.0 °F - 60.1 °F 64% 29.98 in 10.0 mi Calm Calm - N/A   Partly Cloudy
9:53 PM 69.1 °F - 62.1 °F 78% 29.99 in 10.0 mi Calm Calm - N/A   Clear
10:53 PM 64.9 °F - 61.0 °F 87% 30.01 in 10.0 mi Calm Calm - N/A   Clear
11:53 PM 64.9 °F - 62.1 °F 90% 30.00 in 10.0 mi Calm Calm - N/A   Clear